DELTA 1 DEB, 3812

Orbit data source: Space-Track

DELTA 1 DEB, 3812 is space debris in SSO originally from a launch on Sun, 15 Dec 1968 UTC launched from the Air Force Western Test Range (AFWTR). Debris objects in space refer to the collection of defunct objects orbiting the Earth. Examples of debris include non-operational satellites, rocket bodies, and fragments generated from explosions, collisions, or faulty payload assembly.

Loading next visibility...
Identifier
3812, 1968-114D
Orbit
SSO
Country
Flag of USUS
Related business
Manufacturer
Unknown
Mission
Spacecraft
Bus & Motor
Unknown
Mass
Unknown
Launch date (UTC)
1968-12-15 (57 years ago)
Launch vehicle
Unknown
Launch site
Air Force Western Test Range (AFWTR)
Object type
Payload
Rocket body
Debris
Shape & HBR
Unknown shape, 0.1 m
Radar Cross Section
Small (<0.1 m²)

Expand to show TLE details & history
Last TLE update: 11 hours ago

TLE from 11 hours ago
0 DELTA 1 DEB
1 03812U 68114D   26037.08110675 -.00000041  00000-0  40420-4 0  9990
2 03812 102.4496  56.8658 0070981  51.7840 345.4924 12.37784595581400
Epoch: 2026-02-06T01:56Z
TLE epoch observation values (Epoch: 2026-02-06T01:56:47.623Z)
Latitude
36.13004°
Longitude
-117.78538°
Altitude
1,466.35 km
Speed
7.157 km/s
True Right ascension
03h 10m 32s
True Declination
35° 58' 52"
Sunlit
Object was in daylight at epoch
Visualization orbit readout
Latitude
Unknown
Longitude
Unknown
Altitude
Unknown
Speed
Unknown
Apparent Right ascension
Unknown
Apparent Declination
Unknown
Sunlit
N/A
Visualization observer readout
Local Sidereal Time
15:04:59
Azimuth
Unknown
Elevation
Unknown
Doppler factor
Unknown
Orbital elements
Apogee altitude
1,569.63 km
Perigee altitude
1,457.597 km
Semi-major axis
7,891.75 km
Eccentricity
0.0071
Inclination
102.4496°
RAAN
56.8658°
Arg. of periapsis
51.784°
True anomaly
345.28688°
Mean anomaly
345.4924°
Eccentric anomaly
345.38982°
Mean motion
3.09587 °/min
Orbital period
116.28 mins
BSTAR
0.00004042
Loading maneuver chart data...
Computing Atmospheric mass density...
Loading historical data...
Loading historical data...
Loading historical data...
Loading historical data...
Loading historical data...
Loading historical data...
Loading historical data...

Documentation

Showing up to 5 results
|